PAL615 OBBI-OKKK

Flight info

Callsign PAL615
Flight time 0h 43m
Altitude 24000
Route BHR A453 DEBTI
Aircraft A339/H-SADE1E2E3GHIJ3J5M1P2RWXY/LB2D1

Departure

Time 2026-04-30 00:27
Airport Bahrain International Airport (OBBI)

Arrival

Time 2026-04-30 01:10
Airport Kuwait International Airport (OKKK)
Time Latitude Longitude Altitude Speed Heading
2026-04-29 23:58 26.26889 50.62944 20 ft 0 kts 213°
2026-04-30 00:15 26.26901 50.62952 21 ft 2 kts 211°
2026-04-30 00:15 26.26914 50.62960 21 ft 2 kts 211°
2026-04-30 00:15 26.26927 50.62969 21 ft 2 kts 211°
2026-04-30 00:15 26.26940 50.62978 21 ft 2 kts 211°
2026-04-30 00:16 26.26953 50.62987 21 ft 2 kts 208°
2026-04-30 00:16 26.26969 50.62992 21 ft 2 kts 180°
2026-04-30 00:16 26.26985 50.62988 21 ft 2 kts 152°
2026-04-30 00:16 26.26997 50.62979 21 ft 2 kts 133°
2026-04-30 00:17 26.27006 50.62965 21 ft 2 kts 110°
2026-04-30 00:17 26.27008 50.62949 21 ft 2 kts 90°
2026-04-30 00:17 26.27009 50.62931 21 ft 2 kts 104°
2026-04-30 00:17 26.27013 50.62919 21 ft 0 kts 122°
2026-04-30 00:18 26.27014 50.62918 21 ft 0 kts 122°
2026-04-30 00:20 26.27012 50.62923 21 ft 2 kts 120°
2026-04-30 00:20 26.26994 50.62954 21 ft 6 kts 123°
2026-04-30 00:20 26.26962 50.63011 21 ft 10 kts 122°
2026-04-30 00:20 26.26915 50.63092 21 ft 13 kts 122°
2026-04-30 00:21 26.26858 50.63191 21 ft 16 kts 123°
2026-04-30 00:21 26.26792 50.63305 21 ft 18 kts 123°
2026-04-30 00:21 26.26715 50.63429 21 ft 20 kts 128°
2026-04-30 00:21 26.26638 50.63568 21 ft 21 kts 121°
2026-04-30 00:22 26.26554 50.63714 21 ft 21 kts 124°
2026-04-30 00:22 26.26480 50.63840 21 ft 16 kts 124°
2026-04-30 00:22 26.26434 50.63916 21 ft 9 kts 122°
2026-04-30 00:22 26.26419 50.63973 21 ft 7 kts 81°
2026-04-30 00:23 26.26449 50.64029 21 ft 9 kts 59°
2026-04-30 00:23 26.26451 50.64100 21 ft 10 kts 116°
2026-04-30 00:23 26.26409 50.64173 21 ft 11 kts 123°
2026-04-30 00:23 26.26359 50.64258 21 ft 14 kts 122°
2026-04-30 00:24 26.26296 50.64365 21 ft 19 kts 123°
2026-04-30 00:24 26.26214 50.64508 21 ft 22 kts 122°
2026-04-30 00:24 26.26129 50.64656 21 ft 22 kts 123°
2026-04-30 00:24 26.26046 50.64799 21 ft 21 kts 123°
2026-04-30 00:25 26.26008 50.64906 21 ft 10 kts 82°
2026-04-30 00:25 26.26051 50.64968 21 ft 8 kts 36°
2026-04-30 00:25 26.26101 50.64997 21 ft 8 kts 10°
2026-04-30 00:25 26.26159 50.64976 21 ft 9 kts 315°
2026-04-30 00:26 26.26195 50.64908 21 ft 10 kts 298°
2026-04-30 00:26 26.26236 50.64834 21 ft 11 kts 303°
2026-04-30 00:26 26.26287 50.64745 21 ft 21 kts 303°
2026-04-30 00:26 26.26502 50.64376 21 ft 89 kts 303°
2026-04-30 00:27 26.26950 50.63599 21 ft 145 kts 303°
2026-04-30 00:27 26.27519 50.62598 541 ft 147 kts 304°
2026-04-30 00:27 26.27943 50.61590 1099 ft 152 kts 280°
2026-04-30 00:27 26.27961 50.60387 1671 ft 151 kts 291°
2026-04-30 00:28 26.28513 50.59469 2023 ft 148 kts 328°
2026-04-30 00:28 26.29536 50.59145 2310 ft 162 kts
2026-04-30 00:28 26.30709 50.59215 2645 ft 176 kts
2026-04-30 00:28 26.31986 50.59286 2950 ft 192 kts
2026-04-30 00:29 26.33399 50.59359 3249 ft 210 kts
2026-04-30 00:29 26.34937 50.59435 3575 ft 228 kts
2026-04-30 00:29 26.36576 50.59515 3910 ft 246 kts
2026-04-30 00:29 26.38355 50.59603 4351 ft 260 kts 360°
2026-04-30 00:30 26.40170 50.59530 4960 ft 265 kts 349°
2026-04-30 00:30 26.41976 50.59094 5551 ft 269 kts 341°
2026-04-30 00:30 26.43794 50.58449 6115 ft 275 kts 338°
2026-04-30 00:30 26.45628 50.57764 6830 ft 278 kts 337°
2026-04-30 00:31 26.47454 50.57075 7465 ft 282 kts 337°
2026-04-30 00:31 26.49338 50.56366 8118 ft 287 kts 337°
2026-04-30 00:31 26.51250 50.55653 8767 ft 292 kts 337°
2026-04-30 00:31 26.53177 50.54935 9410 ft 296 kts 336°
2026-04-30 00:32 26.55147 50.54202 10070 ft 301 kts 336°
2026-04-30 00:32 26.57191 50.53434 10500 ft 315 kts 335°
2026-04-30 00:32 26.59322 50.52626 10811 ft 332 kts 335°
2026-04-30 00:32 26.61591 50.51769 11118 ft 350 kts 336°
2026-04-30 00:33 26.63958 50.50877 11410 ft 367 kts 336°
2026-04-30 00:33 26.66437 50.49946 11698 ft 384 kts 336°
2026-04-30 00:33 26.68959 50.48831 12188 ft 389 kts 328°
2026-04-30 00:33 26.71263 50.47290 12886 ft 386 kts 318°
2026-04-30 00:34 26.73312 50.45384 13587 ft 384 kts 311°
2026-04-30 00:34 26.75263 50.43334 14247 ft 387 kts 310°
2026-04-30 00:34 26.77221 50.41237 14666 ft 389 kts 310°
2026-04-30 00:34 26.79182 50.39144 14814 ft 390 kts 310°
2026-04-30 00:35 26.81171 50.37030 14819 ft 390 kts 310°
2026-04-30 00:35 26.83138 50.34950 14820 ft 390 kts 310°
2026-04-30 00:35 26.85119 50.32851 14940 ft 395 kts 310°
2026-04-30 00:35 26.87108 50.30742 15610 ft 398 kts 310°
2026-04-30 00:36 26.89121 50.28609 16430 ft 398 kts 310°
2026-04-30 00:36 26.91129 50.26479 17109 ft 401 kts 310°
2026-04-30 00:36 26.93154 50.24330 17731 ft 406 kts 310°
2026-04-30 00:36 26.95220 50.22134 18392 ft 409 kts 310°
2026-04-30 00:37 26.97279 50.19946 19043 ft 412 kts 310°
2026-04-30 00:37 26.99351 50.17742 19650 ft 416 kts 310°
2026-04-30 00:37 27.01474 50.15483 20254 ft 420 kts 310°
2026-04-30 00:37 27.03574 50.13224 20853 ft 421 kts 308°
2026-04-30 00:38 27.05593 50.10845 21403 ft 423 kts 306°
2026-04-30 00:38 27.07522 50.08361 21944 ft 425 kts 304°
2026-04-30 00:38 27.09467 50.05817 22498 ft 428 kts 304°
2026-04-30 00:38 27.11405 50.03271 22967 ft 431 kts 304°
2026-04-30 00:39 27.13347 50.00719 23434 ft 434 kts 303°
2026-04-30 00:39 27.15306 49.98141 23752 ft 436 kts 303°
2026-04-30 00:39 27.17285 49.95538 23842 ft 436 kts 303°
2026-04-30 00:39 27.19228 49.92978 23846 ft 436 kts 303°
2026-04-30 00:40 27.21196 49.90385 23843 ft 436 kts 303°
2026-04-30 00:40 27.23148 49.87810 23846 ft 435 kts 303°
2026-04-30 00:40 27.25118 49.85209 23841 ft 434 kts 303°
2026-04-30 00:40 27.27090 49.82605 23848 ft 434 kts 303°
2026-04-30 00:41 27.29016 49.80059 23849 ft 434 kts 303°
2026-04-30 00:41 27.30977 49.77469 23850 ft 434 kts 303°
2026-04-30 00:41 27.32936 49.74876 23854 ft 434 kts 303°
2026-04-30 00:41 27.34899 49.72277 23853 ft 434 kts 303°
2026-04-30 00:42 27.36859 49.69679 23851 ft 434 kts 303°
2026-04-30 00:42 27.38798 49.67107 23850 ft 434 kts 303°
2026-04-30 00:42 27.40765 49.64496 23851 ft 434 kts 303°
2026-04-30 00:42 27.42708 49.61918 23853 ft 434 kts 303°
2026-04-30 00:43 27.44677 49.59304 23852 ft 434 kts 303°
2026-04-30 00:43 27.46676 49.56771 23852 ft 436 kts 306°
2026-04-30 00:43 27.48817 49.54362 23857 ft 440 kts 309°
2026-04-30 00:43 27.51105 49.52073 23856 ft 443 kts 312°
2026-04-30 00:44 27.53522 49.49872 23862 ft 444 kts 314°
2026-04-30 00:44 27.55938 49.47706 23859 ft 444 kts 314°
2026-04-30 00:44 27.58375 49.45529 23860 ft 445 kts 314°
2026-04-30 00:44 27.60783 49.43372 23861 ft 444 kts 314°
2026-04-30 00:45 27.63209 49.41198 23860 ft 444 kts 313°
2026-04-30 00:45 27.65628 49.39028 23855 ft 445 kts 313°
2026-04-30 00:45 27.68033 49.36865 23860 ft 444 kts 314°
2026-04-30 00:45 27.70461 49.34683 23865 ft 444 kts 313°
2026-04-30 00:46 27.72872 49.32513 23862 ft 443 kts 313°
2026-04-30 00:46 27.75285 49.30340 23866 ft 443 kts 313°
2026-04-30 00:46 27.77690 49.28173 23860 ft 444 kts 313°
2026-04-30 00:46 27.80098 49.26001 23858 ft 443 kts 313°
2026-04-30 00:47 27.82502 49.23833 23866 ft 443 kts 313°
2026-04-30 00:47 27.84919 49.21661 23710 ft 445 kts 314°
2026-04-30 00:47 27.87447 49.19577 23248 ft 447 kts 317°
2026-04-30 00:47 27.90039 49.17683 22788 ft 447 kts 321°
2026-04-30 00:48 27.92720 49.15894 22254 ft 445 kts 322°
2026-04-30 00:48 27.95427 49.14120 21746 ft 442 kts 322°
2026-04-30 00:48 27.98068 49.12396 21272 ft 438 kts 322°
2026-04-30 00:48 28.00699 49.10677 20782 ft 435 kts 322°
2026-04-30 00:49 28.03323 49.08958 20353 ft 429 kts 323°
2026-04-30 00:49 28.05886 49.07277 19990 ft 423 kts 323°
2026-04-30 00:49 28.08415 49.05616 19609 ft 418 kts 323°
2026-04-30 00:49 28.10923 49.03965 19253 ft 413 kts 323°
2026-04-30 00:50 28.13370 49.02354 18859 ft 409 kts 323°
2026-04-30 00:50 28.15830 49.00732 18340 ft 409 kts 323°
2026-04-30 00:50 28.18283 48.99111 17768 ft 409 kts 324°
2026-04-30 00:50 28.20771 48.97466 17190 ft 409 kts 324°
2026-04-30 00:51 28.23214 48.95855 16680 ft 407 kts 324°
2026-04-30 00:51 28.25650 48.94247 16232 ft 403 kts 324°
2026-04-30 00:51 28.28053 48.92664 15801 ft 399 kts 324°
2026-04-30 00:51 28.30459 48.91075 15361 ft 395 kts 325°
2026-04-30 00:52 28.32827 48.89512 14954 ft 391 kts 325°
2026-04-30 00:52 28.35167 48.87965 14531 ft 388 kts 324°
2026-04-30 00:52 28.37469 48.86440 14114 ft 384 kts 325°
2026-04-30 00:52 28.39783 48.84906 13699 ft 381 kts 325°
2026-04-30 00:53 28.42061 48.83396 13271 ft 378 kts 325°
2026-04-30 00:53 28.44330 48.81891 12868 ft 375 kts 325°
2026-04-30 00:53 28.46577 48.80397 12440 ft 372 kts 325°
2026-04-30 00:53 28.48814 48.78911 12029 ft 370 kts 325°
2026-04-30 00:54 28.51005 48.77453 11557 ft 369 kts 326°
2026-04-30 00:54 28.53235 48.75971 11097 ft 368 kts 326°
2026-04-30 00:54 28.55420 48.74510 10676 ft 365 kts 324°
2026-04-30 00:54 28.57421 48.72796 10519 ft 350 kts 315°
2026-04-30 00:55 28.59062 48.70839 10364 ft 337 kts 306°
2026-04-30 00:55 28.60480 48.68765 10277 ft 324 kts 304°
2026-04-30 00:55 28.63099 48.64787 10121 ft 303 kts 303°
2026-04-30 00:56 28.64333 48.62917 10081 ft 291 kts 303°
2026-04-30 00:56 28.65533 48.61097 10032 ft 281 kts 303°
2026-04-30 00:56 28.66694 48.59343 9822 ft 277 kts 303°
2026-04-30 00:56 28.67850 48.57594 9516 ft 278 kts 304°
2026-04-30 00:57 28.69007 48.55844 9227 ft 277 kts 304°
2026-04-30 00:57 28.70163 48.54097 8963 ft 276 kts 304°
2026-04-30 00:57 28.71326 48.52341 8745 ft 273 kts 304°
2026-04-30 00:57 28.72460 48.50635 8678 ft 264 kts 305°
2026-04-30 00:58 28.73544 48.49004 8665 ft 253 kts 304°
2026-04-30 00:58 28.74577 48.47398 8462 ft 251 kts 303°
2026-04-30 00:58 28.75592 48.45775 8218 ft 250 kts 304°
2026-04-30 00:58 28.76605 48.44155 7993 ft 249 kts 304°
2026-04-30 00:59 28.77604 48.42557 7760 ft 248 kts 304°
2026-04-30 00:59 28.78603 48.40963 7526 ft 247 kts 305°
2026-04-30 00:59 28.79604 48.39365 7300 ft 245 kts 305°
2026-04-30 00:59 28.80589 48.37795 7101 ft 243 kts 306°
2026-04-30 01:00 28.81573 48.36227 6881 ft 242 kts 306°
2026-04-30 01:00 28.82543 48.34680 6679 ft 240 kts 306°
2026-04-30 01:00 28.83507 48.33142 6463 ft 238 kts 306°
2026-04-30 01:00 28.84478 48.31593 6245 ft 237 kts 306°
2026-04-30 01:01 28.85436 48.30065 6024 ft 236 kts 306°
2026-04-30 01:01 28.86387 48.28548 5799 ft 236 kts 307°
2026-04-30 01:01 28.87346 48.27019 5562 ft 236 kts 307°
2026-04-30 01:01 28.88291 48.25509 5335 ft 235 kts 307°
2026-04-30 01:02 28.89239 48.23994 5124 ft 234 kts 307°
2026-04-30 01:02 28.90183 48.22485 4908 ft 233 kts 307°
2026-04-30 01:02 28.91120 48.20985 4690 ft 232 kts 308°
2026-04-30 01:02 28.92058 48.19485 4469 ft 232 kts 307°
2026-04-30 01:03 28.92996 48.17986 4243 ft 232 kts 307°
2026-04-30 01:03 28.93934 48.16479 4022 ft 231 kts 308°
2026-04-30 01:03 28.94861 48.14994 3805 ft 231 kts 308°
2026-04-30 01:03 28.95788 48.13508 3591 ft 231 kts 308°
2026-04-30 01:04 28.96753 48.12057 3421 ft 226 kts 316°
2026-04-30 01:04 28.97842 48.10782 3318 ft 220 kts 319°
2026-04-30 01:04 28.99009 48.09650 3097 ft 220 kts 328°
2026-04-30 01:04 29.00309 48.08762 2883 ft 218 kts 335°
2026-04-30 01:05 29.01678 48.08015 2671 ft 219 kts 336°
2026-04-30 01:05 29.03081 48.07290 2466 ft 219 kts 337°
2026-04-30 01:05 29.04443 48.06581 2451 ft 209 kts 337°
2026-04-30 01:05 29.05753 48.05891 2450 ft 207 kts 336°
2026-04-30 01:06 29.07050 48.05202 2427 ft 200 kts 337°
2026-04-30 01:06 29.08280 48.04545 2349 ft 191 kts 337°
2026-04-30 01:06 29.09457 48.03916 2279 ft 178 kts 337°
2026-04-30 01:06 29.10518 48.03350 2311 ft 158 kts 338°
2026-04-30 01:07 29.11502 48.02825 2199 ft 150 kts 338°
2026-04-30 01:07 29.12430 48.02331 2003 ft 143 kts 338°
2026-04-30 01:07 29.13314 48.01862 1817 ft 136 kts 338°
2026-04-30 01:07 29.14147 48.01417 1643 ft 128 kts 338°
2026-04-30 01:08 29.14961 48.00985 1498 ft 130 kts 337°
2026-04-30 01:08 29.15792 48.00543 1341 ft 131 kts 337°
2026-04-30 01:08 29.16615 48.00105 1176 ft 132 kts 337°
2026-04-30 01:08 29.17453 47.99662 1008 ft 132 kts 337°
2026-04-30 01:09 29.18300 47.99211 830 ft 133 kts 336°
2026-04-30 01:09 29.19144 47.98761 649 ft 134 kts 335°
2026-04-30 01:09 29.19994 47.98296 467 ft 135 kts 334°
2026-04-30 01:09 29.20859 47.97848 293 ft 136 kts 334°
2026-04-30 01:10 29.21725 47.97389 182 ft 134 kts 334°
2026-04-30 01:10 29.22429 47.97012 166 ft 71 kts 335°
2026-04-30 01:10 29.22716 47.96860 162 ft 39 kts 335°
2026-04-30 01:10 29.22963 47.96728 157 ft 38 kts 335°
2026-04-30 01:11 29.23195 47.96609 156 ft 27 kts 341°
2026-04-30 01:11 29.23342 47.96603 156 ft 14 kts 13°
2026-04-30 01:11 29.23445 47.96643 154 ft 16 kts 19°
2026-04-30 01:11 29.23548 47.96655 153 ft 14 kts 352°
2026-04-30 01:12 29.23644 47.96616 153 ft 14 kts 334°
2026-04-30 01:12 29.23737 47.96567 153 ft 15 kts 334°
2026-04-30 01:12 29.23833 47.96514 153 ft 15 kts 334°
2026-04-30 01:12 29.23935 47.96462 152 ft 16 kts 338°
2026-04-30 01:13 29.24039 47.96403 151 ft 17 kts 332°
2026-04-30 01:13 29.24105 47.96394 151 ft 7 kts 30°
2026-04-30 01:13 29.24141 47.96444 150 ft 9 kts 66°
2026-04-30 01:13 29.24171 47.96518 150 ft 9 kts 64°
2026-04-30 01:14 29.24188 47.96558 151 ft 5 kts 64°
2026-04-30 01:14 29.24210 47.96581 151 ft 2 kts
2026-04-30 01:14 29.24254 47.96573 151 ft 8 kts 353°
2026-04-30 01:14 29.24316 47.96558 151 ft 9 kts 339°
2026-04-30 01:15 29.24355 47.96540 150 ft 0 kts 337°